GW6935 Weather Reports


time (UTC)temp
F
wind
direction
speed
knots
gust
knots
rain 1hr
in
rain 24hr
in
rain mn
in
humidity
%
barometer
mb
20260504000612 59 205 1.7 1.7 0.00 0.00 0.00 46 1049.9
20260504000110 59 202 1.7 1.7 0.00 0.00 0.00 46 1050.1
20260503235608 59 205 0.9 1.7 0.00 0.00 0.00 45 1050.0
20260503235104 59 204 0.9 1.7 0.00 0.00 0.00 46 1049.8
20260503234602 59 200 1.7 1.7 0.00 0.00 0.00 46 1049.7
20260503234100 60 207 1.7 1.7 0.00 0.00 0.00 44 1049.9
20260503233556 61 210 1.7 1.7 0.00 0.00 0.00 41 1049.9
20260503233052 61 227 0.9 1.7 0.00 0.00 0.00 43 1050.2
20260503232549 60 228 0.0 0.0 0.00 0.00 0.00 42 1050.2
20260503232047 60 228 0.0 0.9 0.00 0.00 0.00 45 1050.4
20260503231545 60 251 0.9 0.9 0.00 0.00 0.00 42 1050.0
20260503231041 61 251 0.0 0.9 0.00 0.00 0.00 45 1050.5
20260503230538 61 251 0.0 0.9 0.00 0.00 0.00 47 1050.6
20260503230036 62 256 0.9 0.9 0.00 0.00 0.00 42 1050.6
20260503225532 62 223 0.0 0.9 0.00 0.00 0.00 42 1050.5
20260503225027 62 217 0.9 0.9 0.00 0.00 0.00 43 1050.6
20260503224525 63 213 0.9 1.7 0.00 0.00 0.00 35 1050.8
20260503224023 64 213 0.9 1.7 0.00 0.00 0.00 36 1050.8
20260503223520 64 156 0.0 0.0 0.00 0.00 0.00 39 1050.9
20260503223016 64 216 1.7 1.7 0.00 0.00 0.00 34 1051.0
20260503222514 65 247 1.7 1.7 0.00 0.00 0.00 34 1051.1
20260503222012 65 208 1.7 1.7 0.00 0.00 0.00 36 1051.2
20260503221510 64 263 0.0 0.9 0.00 0.00 0.00 37 1051.0
20260503221007 64 275 1.7 2.6 0.00 0.00 0.00 41 1051.1
20260503220503 65 203 2.6 2.6 0.00 0.00 0.00 33 1051.1
20260503220000 64 236 0.9 1.7 0.00 0.00 0.00 37 1051.4
20260503215457 64 245 0.9 2.6 0.00 0.00 0.00 37 1051.5
20260503214954 63 210 1.7 1.7 0.00 0.00 0.00 34 1051.3
20260503214452 63 199 3.5 3.5 0.00 0.00 0.00 32 1051.4
20260503213949 65 198 1.7 1.7 0.00 0.00 0.00 32 1051.5
20260503213447 64 216 1.7 2.6 0.00 0.00 0.00 39 1051.3
20260503212943 64 214 2.6 3.5 0.00 0.00 0.00 34 1051.1
20260503212441 64 234 0.9 1.7 0.00 0.00 0.00 34 1051.1
20260503211938 65 225 1.7 2.6 0.00 0.00 0.00 38 1051.6
20260503211435 64 229 1.7 3.5 0.00 0.00 0.00 37 1051.7
20260503210931 65 235 1.7 3.5 0.00 0.00 0.00 37 1051.5
20260503210428 64 272 1.7 3.5 0.00 0.00 0.00 36 1051.7
20260503205927 63 240 2.6 3.5 0.00 0.00 0.00 38 1051.8
20260503205425 65 265 0.9 2.6 0.00 0.00 0.00 35 1051.8
20260503204921 64 202 1.7 1.7 0.00 0.00 0.00 36 1051.6
20260503204418 65 200 2.6 3.5 0.00 0.00 0.00 32 1051.8
20260503203915 64 265 1.7 2.6 0.00 0.00 0.00 40 1051.9
20260503203413 64 218 1.7 3.5 0.00 0.00 0.00 33 1051.7
20260503202909 64 238 1.7 1.7 0.00 0.00 0.00 34 1052.0
20260503202408 63 218 1.7 2.6 0.00 0.00 0.00 37 1052.5
20260503201906 64 197 3.5 3.5 0.00 0.00 0.00 32 1052.6
20260503201402 64 210 0.9 2.6 0.00 0.00 0.00 32 1052.7
20260503200900 65 203 3.5 3.5 0.00 0.00 0.00 30 1052.7
20260503200355 65 249 1.7 2.6 0.00 0.00 0.00 36 1052.7
20260503195853 65 210 0.9 2.6 0.00 0.00 0.00 32 1052.8
20260503195349 65 272 2.6 2.6 0.00 0.00 0.00 39 1053.0
20260503194847 65 274 1.7 3.5 0.00 0.00 0.00 36 1053.1
20260503194343 64 249 1.7 3.5 0.00 0.00 0.00 40 1053.3
20260503193839 63 206 1.7 3.5 0.00 0.00 0.00 39 1053.1
20260503193335 64 201 2.6 3.5 0.00 0.00 0.00 38 1053.2
20260503192831 63 247 2.6 3.5 0.00 0.00 0.00 37 1053.2
20260503192327 63 196 2.6 5.2 0.00 0.00 0.00 36 1053.4
20260503191823 63 196 4.3 5.2 0.00 0.00 0.00 33 1053.4
20260503191321 64 206 3.5 3.5 0.00 0.00 0.00 34 1053.6
20260503190817 64 249 1.7 2.6 0.00 0.00 0.00 35 1053.6
20260503190314 63 205 1.7 2.6 0.00 0.00 0.00 35 1053.7
20260503185811 63 190 1.7 2.6 0.00 0.00 0.00 33 1053.6
20260503185307 62 195 2.6 3.5 0.00 0.00 0.00 36 1053.8
20260503184807 62 201 2.6 2.6 0.00 0.00 0.00 37 1054.1
20260503184304 62 205 3.5 5.2 0.00 0.00 0.00 37 1054.1
20260503183759 61 215 3.5 5.2 0.00 0.00 0.00 40 1054.1
20260503183257 61 203 2.6 2.6 0.00 0.00 0.00 38 1054.1
20260503182754 62 194 3.5 3.5 0.00 0.00 0.00 39 1054.2
20260503182253 62 203 2.6 3.5 0.00 0.00 0.00 34 1054.1
20260503181750 62 237 1.7 3.5 0.00 0.00 0.00 38 1054.4
20260503181247 61 213 1.7 5.2 0.00 0.00 0.00 39 1054.2
20260503180743 62 195 4.3 5.2 0.00 0.00 0.00 37 1054.3
20260503180242 61 212 0.9 2.6 0.00 0.00 0.00 44 1054.5
20260503175738 61 201 3.5 3.5 0.00 0.00 0.00 38 1054.6
20260503175236 62 191 3.5 3.5 0.00 0.00 0.00 35 1054.7
20260503174732 62 195 1.7 2.6 0.00 0.00 0.00 35 1054.7
20260503174230 62 210 1.7 5.2 0.00 0.00 0.00 35 1055.1
20260503173730 62 243 0.0 3.5 0.00 0.00 0.00 44 1054.7
20260503173226 60 196 1.7 2.6 0.00 0.00 0.00 42 1055.1
20260503172723 60 191 3.5 6.1 0.00 0.00 0.00 39 1055.1
20260503172220 60 203 3.5 3.5 0.00 0.00 0.00 40 1055.3
20260503171717 60 196 3.5 3.5 0.00 0.00 0.00 36 1055.3
20260503171214 60 191 1.7 3.5 0.00 0.00 0.00 44 1055.5
20260503170711 60 217 1.7 2.6 0.00 0.00 0.00 36 1055.5
20260503170208 60 192 2.6 3.5 0.00 0.00 0.00 36 1055.6
20260503160129 61 203 3.5 2.6 0.00 0.00 0.00 39 1056.3
20260503150559 58 268 1.7 1.7 0.00 0.00 0.00 43 1056.7
20260503130949 47 218 0.9 1.7 0.00 0.00 0.00 63 1056.5
20260503130447 46 225 0.0 0.9 0.00 0.00 0.00 63 1056.4
20260503110343 31 356 0.0 0.0 0.00 0.00 0.00 94 1055.8
20260503090235 32 356 0.0 0.0 0.00 0.00 0.00 92 1055.2
20260503081202 33 356 0.0 0.0 0.00 0.00 0.00 91 1054.8
20260503080657 34 356 0.0 0.0 0.00 0.00 0.00 90 1055.2
20260503080155 34 356 0.0 0.0 0.00 0.00 0.00 90 1055.1
20260503072631 35 356 0.0 0.0 0.00 0.00 0.00 88 1054.7
20260503072128 35 356 0.0 0.0 0.00 0.00 0.00 89 1054.6
20260503071625 35 356 0.0 0.0 0.00 0.00 0.00 89 1054.7
20260503071122 35 356 0.0 0.0 0.00 0.00 0.00 89 1054.9
20260503070619 35 356 0.0 0.0 0.00 0.00 0.00 89 1054.9
20260503070117 35 356 0.0 0.0 0.00 0.00 0.00 88 1054.7
20260503055037 38 10 0.0 0.0 0.00 0.00 0.00 79 1054.9
20260503054533 38 10 0.0 0.0 0.00 0.00 0.00 78 1055.1
20260503054031 39 10 0.0 0.0 0.00 0.00 0.00 77 1055.2
20260503053529 39 10 0.0 0.0 0.00 0.00 0.00 77 1055.1
20260503053026 38 10 0.0 0.0 0.00 0.00 0.00 79 1054.9
20260503052523 38 10 0.0 0.0 0.00 0.00 0.00 79 1054.9
20260503052019 38 10 0.0 0.0 0.00 0.00 0.00 81 1055.3
20260503051515 38 10 0.0 0.0 0.00 0.00 0.00 78 1055.1
20260503051012 39 10 0.0 0.0 0.00 0.00 0.00 75 1055.2
20260503050508 40 10 0.0 0.0 0.00 0.00 0.00 71 1055.2
20260503050006 41 10 0.0 0.0 0.00 0.00 0.00 70 1055.4
20260503045503 41 10 0.0 0.0 0.00 0.00 0.00 68 1055.2
20260503045000 41 10 0.0 0.0 0.00 0.00 0.00 68 1055.2
20260503044457 41 10 0.0 0.0 0.00 0.00 0.00 67 1055.2
20260503043954 42 10 0.0 0.0 0.00 0.00 0.00 69 1055.2
20260503043450 42 10 0.0 0.0 0.00 0.00 0.00 69 1055.1
20260503042947 43 10 0.0 0.0 0.00 0.00 0.00 67 1055.1
20260503042443 43 10 0.0 0.0 0.00 0.00 0.00 65 1054.9
20260503041940 43 10 0.0 0.0 0.00 0.00 0.00 64 1055.2
20260503041437 43 10 0.0 0.0 0.00 0.00 0.00 65 1054.9
20260503040934 43 10 0.0 0.0 0.00 0.00 0.00 65 1055.1
20260503040432 43 10 0.0 0.0 0.00 0.00 0.00 65 1054.9
20260503035929 43 10 0.0 0.0 0.00 0.00 0.00 64 1055.1
20260503035425 44 10 0.0 0.0 0.00 0.00 0.00 64 1055.1
20260503034923 44 10 0.0 0.0 0.00 0.00 0.00 65 1054.9
20260503034421 43 10 0.0 0.0 0.00 0.00 0.00 68 1054.8
20260503033917 43 10 0.0 0.0 0.00 0.00 0.00 67 1055.1
20260503033415 42 10 0.0 0.0 0.00 0.00 0.00 67 1054.7
20260503032913 42 10 0.0 0.0 0.00 0.00 0.00 70 1054.8
20260503032411 42 10 0.0 0.0 0.00 0.00 0.00 71 1054.8
20260503031908 42 10 0.0 0.0 0.00 0.00 0.00 70 1054.8
20260503031406 42 10 0.0 0.0 0.00 0.00 0.00 70 1055.1
20260503030902 43 10 0.0 0.0 0.00 0.00 0.00 71 1054.7
20260503030358 43 10 0.0 0.0 0.00 0.00 0.00 69 1054.9
20260503025855 43 10 0.0 0.0 0.00 0.00 0.00 71 1054.7
20260503025353 43 10 0.0 0.0 0.00 0.00 0.00 69 1054.7
20260503024850 44 10 0.0 0.0 0.00 0.00 0.00 67 1054.7
20260503024346 44 10 0.0 0.0 0.00 0.00 0.00 65 1054.6
20260503023843 45 10 0.0 0.0 0.00 0.00 0.00 64 1054.5
20260503023341 45 10 0.0 0.0 0.00 0.00 0.00 64 1054.3
20260503022838 46 10 0.0 0.0 0.00 0.00 0.00 61 1054.4
20260503022337 46 10 0.0 0.0 0.00 0.00 0.00 59 1054.4
20260503021834 46 10 0.0 0.0 0.00 0.00 0.00 59 1054.3
20260503021330 46 10 0.0 0.9 0.00 0.00 0.00 59 1054.1
20260503020828 46 10 0.0 0.9 0.00 0.00 0.00 60 1054.0
20260503020326 46 11 0.0 0.9 0.00 0.00 0.00 61 1054.2
20260503015822 46 11 0.0 0.9 0.00 0.00 0.00 62 1053.9
20260503015319 46 19 0.9 2.6 0.00 0.00 0.00 63 1053.7
20260503014814 46 359 0.0 1.7 0.00 0.00 0.00 64 1053.7
20260503014313 46 325 0.9 0.9 0.00 0.00 0.00 67 1053.7
20260503013810 46 22 0.0 0.0 0.00 0.00 0.00 69 1053.7
20260503013307 46 24 0.0 3.5 0.00 0.00 0.00 68 1053.5
20260503012804 46 300 0.0 0.0 0.00 0.00 0.00 70 1053.6
20260503012302 47 300 0.0 0.0 0.00 0.00 0.00 72 1053.5
20260503011758 47 300 0.0 0.0 0.00 0.00 0.00 66 1053.5
20260503011255 48 300 0.0 0.0 0.00 0.00 0.00 66 1053.3
20260503010751 48 300 0.0 0.0 0.00 0.00 0.00 64 1053.4
20260503010249 48 300 0.0 0.0 0.00 0.00 0.00 61 1053.5
20260503005746 48 300 0.0 0.0 0.00 0.00 0.00 61 1053.2
20260503005243 48 300 0.0 0.0 0.00 0.00 0.00 63 1053.1
20260503004739 48 300 0.0 0.0 0.00 0.00 0.00 60 1053.2
20260503004237 48 300 0.0 0.0 0.00 0.00 0.00 59 1053.2
20260503003734 48 300 0.0 0.0 0.00 0.00 0.00 62 1052.9
20260503003231 49 300 0.0 0.0 0.00 0.00 0.00 63 1053.0
20260503002728 49 300 0.0 0.0 0.00 0.00 0.00 62 1053.0
20260503002225 49 300 0.9 0.9 0.00 0.00 0.00 61 1052.9
20260503001721 50 300 0.9 0.9 0.00 0.00 0.00 60 1052.8
20260503001217 50 300 0.0 0.9 0.00 0.00 0.00 60 1052.8